TimeCST,TemperatureF,Dew PointF,Humidity,Sea Level PressureIn,VisibilityMPH,Wind Direction,Wind SpeedMPH,Gust SpeedMPH,PrecipitationIn,Events,Conditions,WindDirDegrees,DateUTC
12:52 AM,17.1,12.0,81,30.17,6.0,NNW,5.8,-,N/A,,Overcast,340,2012-12-29 06:52:00
1:25 AM,15.8,10.4,79,30.13,5.0,North,4.6,-,N/A,,Overcast,10,2012-12-29 07:25:00
1:52 AM,16.0,10.9,81,30.18,5.0,NNE,4.6,-,0.00,Snow,Light Snow,20,2012-12-29 07:52:00
2:52 AM,17.1,12.0,81,30.19,10.0,WNW,11.5,-,0.00,,Overcast,290,2012-12-29 08:52:00
3:52 AM,15.1,10.0,80,30.21,6.0,WNW,12.7,-,0.00,Snow,Light Snow,300,2012-12-29 09:52:00
4:52 AM,12.0,7.0,80,30.21,9.0,NW,6.9,-,0.00,Snow,Light Snow,310,2012-12-29 10:52:00
5:52 AM,12.0,8.1,84,30.23,10.0,West,3.5,-,0.00,,Mostly Cloudy,280,2012-12-29 11:52:00
6:52 AM,10.9,7.0,84,30.25,10.0,Calm,Calm,-,N/A,,Mostly Cloudy,0,2012-12-29 12:52:00
7:06 AM,10.4,6.8,85,30.19,10.0,Calm,Calm,-,N/A,,Mostly Cloudy,0,2012-12-29 13:06:00
7:52 AM,10.9,7.0,84,30.25,10.0,Calm,Calm,-,N/A,,Scattered Clouds,0,2012-12-29 13:52:00
8:52 AM,12.0,8.1,84,30.25,7.0,WSW,4.6,-,N/A,,Scattered Clouds,250,2012-12-29 14:52:00
9:52 AM,14.0,7.0,74,30.29,7.0,WNW,4.6,-,N/A,,Scattered Clouds,290,2012-12-29 15:52:00
10:52 AM,15.1,7.0,70,30.29,10.0,NW,4.6,-,N/A,,Partly Cloudy,310,2012-12-29 16:52:00
11:52 AM,18.0,8.1,65,30.27,10.0,Calm,Calm,-,N/A,,Clear,0,2012-12-29 17:52:00
12:52 PM,21.0,10.0,63,30.24,10.0,NNE,3.5,-,N/A,,Clear,30,2012-12-29 18:52:00
1:52 PM,21.0,12.0,68,30.23,10.0,NNW,4.6,-,N/A,,Clear,340,2012-12-29 19:52:00
2:52 PM,23.0,12.0,63,30.23,10.0,Calm,Calm,-,N/A,,Clear,0,2012-12-29 20:52:00
3:52 PM,25.0,12.9,60,30.25,10.0,SSW,6.9,-,N/A,,Clear,210,2012-12-29 21:52:00
4:52 PM,24.1,12.9,62,30.26,10.0,SSW,3.5,-,N/A,,Clear,210,2012-12-29 22:52:00
5:52 PM,21.0,12.0,68,30.26,10.0,South,3.5,-,N/A,,Clear,180,2012-12-29 23:52:00
6:52 PM,18.0,10.9,74,30.28,10.0,SE,4.6,-,N/A,,Clear,140,2012-12-30 00:52:00
7:52 PM,18.0,12.0,78,30.28,10.0,SE,4.6,-,N/A,,Clear,130,2012-12-30 01:52:00
8:52 PM,15.1,10.0,80,30.28,10.0,SE,6.9,-,N/A,,Clear,140,2012-12-30 02:52:00
9:52 PM,17.1,12.0,81,30.28,10.0,SSE,5.8,-,N/A,,Clear,150,2012-12-30 03:52:00
10:52 PM,15.1,10.0,80,30.28,10.0,SE,5.8,-,N/A,,Clear,130,2012-12-30 04:52:00
11:52 PM,14.0,10.0,84,30.28,8.0,SSE,5.8,-,N/A,,Clear,160,2012-12-30 05:52:00